Year,Month,Day,Hour,Minute,Value (Times are PST for temperature in C)
2009,06,26,00,00,9.60
2009,06,26,00,01,9.60
2009,06,26,00,02,9.60
2009,06,26,00,03,9.60
2009,06,26,00,04,9.60
2009,06,26,00,05,9.60
2009,06,26,00,06,9.60
2009,06,26,00,07,9.60
2009,06,26,00,08,9.60
2009,06,26,00,09,9.60
2009,06,26,00,10,9.60
2009,06,26,00,11,9.60
2009,06,26,00,12,9.60
2009,06,26,00,13,9.60
2009,06,26,00,14,9.60
2009,06,26,00,15,9.60
2009,06,26,00,16,9.60
2009,06,26,00,17,9.60
2009,06,26,00,18,9.60
2009,06,26,00,19,9.60
2009,06,26,00,20,9.60
2009,06,26,00,21,9.60
2009,06,26,00,22,9.60
2009,06,26,00,23,9.60
2009,06,26,00,24,9.60
2009,06,26,00,25,9.60
2009,06,26,00,26,9.60
2009,06,26,00,27,9.60
2009,06,26,00,28,9.60
2009,06,26,00,29,9.60
2009,06,26,00,30,9.60
2009,06,26,00,31,9.60
2009,06,26,00,32,9.60
2009,06,26,00,33,9.60
2009,06,26,00,34,9.60
2009,06,26,00,35,9.60
2009,06,26,00,36,9.60
2009,06,26,00,37,9.70
2009,06,26,00,38,9.70
2009,06,26,00,39,9.70
2009,06,26,00,40,9.70
2009,06,26,00,41,9.70
2009,06,26,00,42,9.70
2009,06,26,00,43,9.60
2009,06,26,00,44,9.60
2009,06,26,00,45,9.60
2009,06,26,00,46,9.60
2009,06,26,00,47,9.60
2009,06,26,00,48,9.60
2009,06,26,00,49,9.60
2009,06,26,00,50,9.60
2009,06,26,00,51,9.60
2009,06,26,00,52,9.60
2009,06,26,00,53,9.60
2009,06,26,00,54,9.60
2009,06,26,00,55,9.60
2009,06,26,00,56,9.50
2009,06,26,00,57,9.50
2009,06,26,00,58,9.50
2009,06,26,00,59,9.50
2009,06,26,01,00,9.40
2009,06,26,01,01,9.40
2009,06,26,01,02,9.40
2009,06,26,01,03,9.40
2009,06,26,01,04,9.30
2009,06,26,01,05,9.30
2009,06,26,01,06,9.30
2009,06,26,01,07,9.30
2009,06,26,01,08,9.20
2009,06,26,01,09,9.20
2009,06,26,01,10,9.20
2009,06,26,01,11,9.20
2009,06,26,01,12,9.20
2009,06,26,01,13,9.10
2009,06,26,01,14,9.10
2009,06,26,01,15,9.10
2009,06,26,01,16,9.10
2009,06,26,01,17,9.00
2009,06,26,01,18,9.00
2009,06,26,01,19,9.00
2009,06,26,01,20,8.90
2009,06,26,01,21,8.90
2009,06,26,01,22,8.90
2009,06,26,01,23,8.90
2009,06,26,01,24,8.90
2009,06,26,01,25,8.80
2009,06,26,01,26,8.80
2009,06,26,01,27,8.80
2009,06,26,01,28,8.80
2009,06,26,01,29,8.70
2009,06,26,01,30,8.70
2009,06,26,01,31,8.70
2009,06,26,01,32,8.70
2009,06,26,01,33,8.70
2009,06,26,01,34,8.70
2009,06,26,01,35,8.70
2009,06,26,01,36,8.60
2009,06,26,01,37,8.60
2009,06,26,01,38,8.60
2009,06,26,01,39,8.60
2009,06,26,01,40,8.60
2009,06,26,01,41,8.60
2009,06,26,01,42,8.60
2009,06,26,01,43,8.60
2009,06,26,01,44,8.60
2009,06,26,01,45,8.50
2009,06,26,01,46,8.50
2009,06,26,01,47,8.50
2009,06,26,01,48,8.50
2009,06,26,01,49,8.40
2009,06,26,01,50,8.40
2009,06,26,01,51,8.40
2009,06,26,01,52,8.40
2009,06,26,01,53,8.40
2009,06,26,01,54,8.40
2009,06,26,01,55,8.40
2009,06,26,01,56,8.40
2009,06,26,01,57,8.50
2009,06,26,01,58,8.50
2009,06,26,01,59,8.50
2009,06,26,02,00,8.60
2009,06,26,02,01,8.60
2009,06,26,02,02,8.60
2009,06,26,02,03,8.60
2009,06,26,02,04,8.60
2009,06,26,02,05,8.60
2009,06,26,02,06,8.70
2009,06,26,02,07,8.60
2009,06,26,02,08,8.60
2009,06,26,02,09,8.70
2009,06,26,02,10,8.70
2009,06,26,02,11,8.70
2009,06,26,02,12,8.70
2009,06,26,02,13,8.70
2009,06,26,02,14,8.70
2009,06,26,02,15,8.70
2009,06,26,02,16,8.70
2009,06,26,02,17,8.70
2009,06,26,02,18,8.70
2009,06,26,02,19,8.70
2009,06,26,02,20,8.70
2009,06,26,02,21,8.60
2009,06,26,02,22,8.60
2009,06,26,02,23,8.60
2009,06,26,02,24,8.60
2009,06,26,02,25,8.50
2009,06,26,02,26,8.40
2009,06,26,02,27,8.40
2009,06,26,02,28,8.40
2009,06,26,02,29,8.40
2009,06,26,02,30,8.40
2009,06,26,02,31,8.40
2009,06,26,02,32,8.40
2009,06,26,02,33,8.30
2009,06,26,02,34,8.40
2009,06,26,02,35,8.30
2009,06,26,02,36,8.30
2009,06,26,02,37,8.30
2009,06,26,02,38,8.30
2009,06,26,02,39,8.30
2009,06,26,02,40,8.30
2009,06,26,02,41,8.30
2009,06,26,02,42,8.30
2009,06,26,02,43,8.30
2009,06,26,02,44,8.30
2009,06,26,02,45,8.30
2009,06,26,02,46,8.20
2009,06,26,02,47,8.20
2009,06,26,02,48,8.10
2009,06,26,02,49,8.10
2009,06,26,02,50,8.00
2009,06,26,02,51,7.90
2009,06,26,02,52,7.90
2009,06,26,02,53,7.80
2009,06,26,02,54,7.80
2009,06,26,02,55,7.70
2009,06,26,02,56,7.70
2009,06,26,02,57,7.60
2009,06,26,02,58,7.60
2009,06,26,02,59,7.50
2009,06,26,03,00,7.50
2009,06,26,03,01,7.40
2009,06,26,03,02,7.40
2009,06,26,03,03,7.40
2009,06,26,03,04,7.40
2009,06,26,03,05,7.30
2009,06,26,03,06,7.30
2009,06,26,03,07,7.30
2009,06,26,03,08,7.30
2009,06,26,03,09,7.30
2009,06,26,03,10,7.30
2009,06,26,03,11,7.20
2009,06,26,03,12,7.20
2009,06,26,03,13,7.20
2009,06,26,03,14,7.20
2009,06,26,03,15,7.20
2009,06,26,03,16,7.10
2009,06,26,03,17,7.10
2009,06,26,03,18,7.10
2009,06,26,03,19,7.00
2009,06,26,03,20,7.00
2009,06,26,03,21,6.90
2009,06,26,03,22,6.90
2009,06,26,03,23,6.90
2009,06,26,03,24,6.80
2009,06,26,03,25,6.80
2009,06,26,03,26,6.80
2009,06,26,03,27,6.80
2009,06,26,03,28,6.80
2009,06,26,03,29,6.80
2009,06,26,03,30,6.80
2009,06,26,03,31,6.80
2009,06,26,03,32,6.70
2009,06,26,03,33,6.70
2009,06,26,03,34,6.70
2009,06,26,03,35,6.70
2009,06,26,03,36,6.70
2009,06,26,03,37,6.70
2009,06,26,03,38,6.70
2009,06,26,03,39,6.70
2009,06,26,03,40,6.60
2009,06,26,03,41,6.60
2009,06,26,03,42,6.60
2009,06,26,03,43,6.60
2009,06,26,03,44,6.60
2009,06,26,03,45,6.60
2009,06,26,03,46,6.50
2009,06,26,03,47,6.50
2009,06,26,03,48,6.50
2009,06,26,03,49,6.50
2009,06,26,03,50,6.50
2009,06,26,03,51,6.50
2009,06,26,03,52,6.40
2009,06,26,03,53,6.40
2009,06,26,03,54,6.40
2009,06,26,03,55,6.40
2009,06,26,03,56,6.40
2009,06,26,03,57,6.40
2009,06,26,03,58,6.40
2009,06,26,03,59,6.40
2009,06,26,04,00,6.40
2009,06,26,04,01,6.30
2009,06,26,04,02,6.30
2009,06,26,04,03,6.30
2009,06,26,04,04,6.30
2009,06,26,04,05,6.30
2009,06,26,04,08,6.30
2009,06,26,04,21,6.20
2009,06,26,04,27,6.20
2009,06,26,04,28,6.20
2009,06,26,04,29,6.20
2009,06,26,04,30,6.20
2009,06,26,04,31,6.20
2009,06,26,04,32,6.20
2009,06,26,04,33,6.30
2009,06,26,04,34,6.30
2009,06,26,04,35,6.30
2009,06,26,04,36,6.30
2009,06,26,04,37,6.30
2009,06,26,04,38,6.30
2009,06,26,04,39,6.30
2009,06,26,04,40,6.30
2009,06,26,04,41,6.30
2009,06,26,04,42,6.30
2009,06,26,04,43,6.30
2009,06,26,04,44,6.30
2009,06,26,04,45,6.40
2009,06,26,04,46,6.40
2009,06,26,04,47,6.40
2009,06,26,04,48,6.40
2009,06,26,04,49,6.40
2009,06,26,04,50,6.40
2009,06,26,04,51,6.40
2009,06,26,04,52,6.40
2009,06,26,04,53,6.40
2009,06,26,04,54,6.40
2009,06,26,04,55,6.40
2009,06,26,04,56,6.40
2009,06,26,04,57,6.40
2009,06,26,04,58,6.30
2009,06,26,04,59,6.30
2009,06,26,05,00,6.30
2009,06,26,05,01,6.30
2009,06,26,05,02,6.30
2009,06,26,05,03,6.30
2009,06,26,05,04,6.30
2009,06,26,05,05,6.30
2009,06,26,05,06,6.30
2009,06,26,05,07,6.30
2009,06,26,05,08,6.30
2009,06,26,05,09,6.30
2009,06,26,05,10,6.20
2009,06,26,05,11,6.20
2009,06,26,05,12,6.20
2009,06,26,05,13,6.20
2009,06,26,05,14,6.20
2009,06,26,05,15,6.20
2009,06,26,05,16,6.20
2009,06,26,05,17,6.20
2009,06,26,05,18,6.20
2009,06,26,05,19,6.20
2009,06,26,05,20,6.20
2009,06,26,05,21,6.20
2009,06,26,05,22,6.10
2009,06,26,05,23,6.10
2009,06,26,05,24,6.10
2009,06,26,05,25,6.10
2009,06,26,05,26,6.10
2009,06,26,05,27,6.10
2009,06,26,05,28,6.10
2009,06,26,05,29,6.10
2009,06,26,05,30,6.10
2009,06,26,05,31,6.10
2009,06,26,05,32,6.00
2009,06,26,05,33,6.00
2009,06,26,05,34,6.00
2009,06,26,05,35,6.00
2009,06,26,05,36,6.00
2009,06,26,05,37,5.90
2009,06,26,05,38,5.90
2009,06,26,05,39,5.90
2009,06,26,05,40,5.90
2009,06,26,05,41,5.90
2009,06,26,05,42,5.90
2009,06,26,05,43,5.90
2009,06,26,05,44,5.90
2009,06,26,05,45,5.80
2009,06,26,05,46,5.80
2009,06,26,05,47,5.80
2009,06,26,05,48,5.80
2009,06,26,05,49,5.80
2009,06,26,05,50,5.80
2009,06,26,05,51,5.80
2009,06,26,05,52,5.80
2009,06,26,05,53,5.80
2009,06,26,05,54,5.80
2009,06,26,05,55,5.80
2009,06,26,05,56,5.80
2009,06,26,05,57,5.80
2009,06,26,05,58,5.80
2009,06,26,05,59,5.70
2009,06,26,06,00,5.70
2009,06,26,06,01,5.70
2009,06,26,06,02,5.70
2009,06,26,06,03,5.70
2009,06,26,06,04,5.70
2009,06,26,06,05,5.70
2009,06,26,06,06,5.70
2009,06,26,06,07,5.70
2009,06,26,06,08,5.70
2009,06,26,06,09,5.70
2009,06,26,06,10,5.70
2009,06,26,06,11,5.70
2009,06,26,06,12,5.70
2009,06,26,06,13,5.80
2009,06,26,06,14,5.80
2009,06,26,06,15,5.80
2009,06,26,06,16,5.80
2009,06,26,06,17,5.90
2009,06,26,06,18,5.90
2009,06,26,06,19,5.90
2009,06,26,06,20,5.90
2009,06,26,06,21,6.00
2009,06,26,06,22,6.00
2009,06,26,06,23,6.10
2009,06,26,06,24,6.10
2009,06,26,06,25,6.20
2009,06,26,06,26,6.20
2009,06,26,06,27,6.20
2009,06,26,06,28,6.20
2009,06,26,06,29,6.30
2009,06,26,06,30,6.30
2009,06,26,06,31,6.40
2009,06,26,06,32,6.40
2009,06,26,06,33,6.50
2009,06,26,06,34,6.50
2009,06,26,06,35,6.60
2009,06,26,06,36,6.60
2009,06,26,06,37,6.70
2009,06,26,06,38,6.80
2009,06,26,06,39,6.80
2009,06,26,06,40,6.90
2009,06,26,06,41,6.90
2009,06,26,06,42,7.00
2009,06,26,06,43,7.10
2009,06,26,06,44,7.10
2009,06,26,06,45,7.10
2009,06,26,06,46,7.20
2009,06,26,06,47,7.20
2009,06,26,06,48,7.20
2009,06,26,06,49,7.30
2009,06,26,06,50,7.30
2009,06,26,06,51,7.40
2009,06,26,06,52,7.40
2009,06,26,06,53,7.40
2009,06,26,06,54,7.50
2009,06,26,06,55,7.50
2009,06,26,06,56,7.60
2009,06,26,06,57,7.60
2009,06,26,06,58,7.70
2009,06,26,06,59,7.70
2009,06,26,07,00,7.70
2009,06,26,07,01,7.80
2009,06,26,07,02,7.80
2009,06,26,07,03,7.90
2009,06,26,07,04,7.90
2009,06,26,07,05,7.90
2009,06,26,07,06,8.00
2009,06,26,07,07,8.00
2009,06,26,07,08,8.10
2009,06,26,07,09,8.10
2009,06,26,07,10,8.20
2009,06,26,07,11,8.20
2009,06,26,07,12,8.30
2009,06,26,07,13,8.30
2009,06,26,07,14,8.30
2009,06,26,07,15,8.40
2009,06,26,07,16,8.40
2009,06,26,07,17,8.50
2009,06,26,07,18,8.60
2009,06,26,07,19,8.60
2009,06,26,07,20,8.60
2009,06,26,07,21,8.70
2009,06,26,07,22,8.70
2009,06,26,07,23,8.70
2009,06,26,07,24,8.80
2009,06,26,07,25,8.80
2009,06,26,07,26,8.90
2009,06,26,07,27,9.00
2009,06,26,07,28,9.10
2009,06,26,07,29,9.20
2009,06,26,07,30,9.20
2009,06,26,07,31,9.30
2009,06,26,07,32,9.30
2009,06,26,07,33,9.40
2009,06,26,07,34,9.50
2009,06,26,07,35,9.50
2009,06,26,07,36,9.60
2009,06,26,07,37,9.60
2009,06,26,07,38,9.60
2009,06,26,07,39,9.70
2009,06,26,07,40,9.70
2009,06,26,07,41,9.80
2009,06,26,07,42,9.80
2009,06,26,07,43,9.90
2009,06,26,07,44,9.90
2009,06,26,07,45,10.00
2009,06,26,07,46,10.10
2009,06,26,07,47,10.10
2009,06,26,07,48,10.20
2009,06,26,07,49,10.20
2009,06,26,07,50,10.30
2009,06,26,07,51,10.30
2009,06,26,07,52,10.30
2009,06,26,07,53,10.40
2009,06,26,07,54,10.40
2009,06,26,07,55,10.40
2009,06,26,07,56,10.40
2009,06,26,07,57,10.50
2009,06,26,07,58,10.50
2009,06,26,07,59,10.50
2009,06,26,08,00,10.60
2009,06,26,08,01,10.60
2009,06,26,08,02,10.60
2009,06,26,08,03,10.60
2009,06,26,08,04,10.70
2009,06,26,08,05,10.70
2009,06,26,08,06,10.60
2009,06,26,08,07,10.60
2009,06,26,08,08,10.60
2009,06,26,08,09,10.70
2009,06,26,08,10,10.70
2009,06,26,08,11,10.70
2009,06,26,08,12,10.70
2009,06,26,08,13,10.70
2009,06,26,08,14,10.80
2009,06,26,08,15,10.80
2009,06,26,08,16,10.80
2009,06,26,08,17,10.80
2009,06,26,08,18,10.80
2009,06,26,08,19,10.80
2009,06,26,08,20,10.80
2009,06,26,08,21,10.90
2009,06,26,08,22,10.90
2009,06,26,08,23,11.00
2009,06,26,08,24,11.00
2009,06,26,08,25,11.10
2009,06,26,08,26,11.10
2009,06,26,08,27,11.10
2009,06,26,08,28,11.20
2009,06,26,08,29,11.30
2009,06,26,08,30,11.30
2009,06,26,08,31,11.40
2009,06,26,08,32,11.40
2009,06,26,08,33,11.40
2009,06,26,08,34,11.40
2009,06,26,08,35,11.50
2009,06,26,08,36,11.50
2009,06,26,08,37,11.50
2009,06,26,08,38,11.50
2009,06,26,08,39,11.50
2009,06,26,08,40,11.60
2009,06,26,08,41,11.60
2009,06,26,08,42,11.60
2009,06,26,08,43,11.70
2009,06,26,08,44,11.70
2009,06,26,08,45,11.80
2009,06,26,08,46,11.90
2009,06,26,08,47,12.00
2009,06,26,08,48,12.00
2009,06,26,08,49,12.10
2009,06,26,08,50,12.20
2009,06,26,08,51,12.20
2009,06,26,08,52,12.30
2009,06,26,08,53,12.30
2009,06,26,08,54,12.30
2009,06,26,08,55,12.40
2009,06,26,08,56,12.40
2009,06,26,08,57,12.50
2009,06,26,08,58,12.50
2009,06,26,08,59,12.60
2009,06,26,09,00,12.60
2009,06,26,09,01,12.60
2009,06,26,09,02,12.70
2009,06,26,09,03,12.70
2009,06,26,09,04,12.80
2009,06,26,09,05,12.90
2009,06,26,09,06,13.00
2009,06,26,09,07,13.10
2009,06,26,09,08,13.20
2009,06,26,09,09,13.20
2009,06,26,09,10,13.30
2009,06,26,09,11,13.40
2009,06,26,09,12,13.40
2009,06,26,09,13,13.40
2009,06,26,09,14,13.50
2009,06,26,09,15,13.50
2009,06,26,09,16,13.50
2009,06,26,09,17,13.50
2009,06,26,09,18,13.60
2009,06,26,09,19,13.50
2009,06,26,09,20,13.50
2009,06,26,09,21,13.50
2009,06,26,09,22,13.40
2009,06,26,09,23,13.50
2009,06,26,09,24,13.60
2009,06,26,09,25,13.60
2009,06,26,09,26,13.70
2009,06,26,09,27,13.70
2009,06,26,09,28,13.80
2009,06,26,09,29,13.80
2009,06,26,09,30,13.90
2009,06,26,09,31,14.00
2009,06,26,09,32,14.00
2009,06,26,09,33,14.10
2009,06,26,09,34,14.20
2009,06,26,09,35,14.30
2009,06,26,09,36,14.30
2009,06,26,09,37,14.40
2009,06,26,09,38,14.50
2009,06,26,09,39,14.50
2009,06,26,09,40,14.60
2009,06,26,09,41,14.70
2009,06,26,09,42,14.80
2009,06,26,09,43,14.80
2009,06,26,09,44,14.80
2009,06,26,09,45,14.70
2009,06,26,09,46,14.70
2009,06,26,09,47,14.60
2009,06,26,09,48,14.60
2009,06,26,09,49,14.60
2009,06,26,09,50,14.60
2009,06,26,09,51,14.60
2009,06,26,09,52,14.50
2009,06,26,09,53,14.50
2009,06,26,09,54,14.60
2009,06,26,09,55,14.60
2009,06,26,09,56,14.50
2009,06,26,09,57,14.40
2009,06,26,09,58,14.30
2009,06,26,09,59,14.30
2009,06,26,10,00,14.30
2009,06,26,10,01,14.30
2009,06,26,10,02,14.20
2009,06,26,10,03,14.20
2009,06,26,10,04,14.20
2009,06,26,10,05,14.20
2009,06,26,10,06,14.20
2009,06,26,10,07,14.20
2009,06,26,10,08,14.20
2009,06,26,10,09,14.20
2009,06,26,10,10,14.20
2009,06,26,10,11,14.20
2009,06,26,10,12,14.20
2009,06,26,10,13,14.20
2009,06,26,10,14,14.20
2009,06,26,10,15,14.20
2009,06,26,10,16,14.20
2009,06,26,10,17,14.10
2009,06,26,10,18,14.00
2009,06,26,10,19,13.90
2009,06,26,10,20,13.90
2009,06,26,10,21,14.00
2009,06,26,10,22,14.00
2009,06,26,10,23,14.10
2009,06,26,10,24,14.30
2009,06,26,10,25,14.40
2009,06,26,10,26,14.50
2009,06,26,10,27,14.50
2009,06,26,10,28,14.40
2009,06,26,10,29,14.30
2009,06,26,10,30,14.20
2009,06,26,10,31,14.20
2009,06,26,10,32,14.10
2009,06,26,10,33,14.10
2009,06,26,10,34,14.10
2009,06,26,10,35,14.10
2009,06,26,10,36,14.10
2009,06,26,10,37,14.10
2009,06,26,10,38,14.10
2009,06,26,10,39,14.20
2009,06,26,10,40,14.30
2009,06,26,10,41,14.30
2009,06,26,10,42,14.30
2009,06,26,10,43,14.30
2009,06,26,10,44,14.20
2009,06,26,10,45,14.10
2009,06,26,10,46,14.10
2009,06,26,10,47,14.10
2009,06,26,10,48,14.00
2009,06,26,10,49,14.10
2009,06,26,10,50,14.10
2009,06,26,10,51,14.20
2009,06,26,10,52,14.30
2009,06,26,10,53,14.40
2009,06,26,10,54,14.50
2009,06,26,10,55,14.40
2009,06,26,10,56,14.30
2009,06,26,10,57,14.20
2009,06,26,10,58,14.10
2009,06,26,10,59,14.10
2009,06,26,11,00,14.00
2009,06,26,11,01,14.00
2009,06,26,11,02,14.00
2009,06,26,11,03,14.00
2009,06,26,11,04,14.00
2009,06,26,11,05,14.10
2009,06,26,11,06,14.30
2009,06,26,11,07,14.30
2009,06,26,11,08,14.40
2009,06,26,11,09,14.50
2009,06,26,11,10,14.60
2009,06,26,11,11,14.70
2009,06,26,11,12,14.80
2009,06,26,11,13,14.80
2009,06,26,11,14,14.70
2009,06,26,11,15,14.70
2009,06,26,11,16,14.70
2009,06,26,11,17,14.80
2009,06,26,11,18,14.90
2009,06,26,11,19,15.00
2009,06,26,11,20,15.00
2009,06,26,11,21,15.00
2009,06,26,11,22,15.20
2009,06,26,11,23,15.40
2009,06,26,11,24,15.50
2009,06,26,11,25,15.50
2009,06,26,11,26,15.30
2009,06,26,11,27,15.20
2009,06,26,11,28,15.20
2009,06,26,11,29,15.00
2009,06,26,11,30,15.00
2009,06,26,11,31,15.00
2009,06,26,11,32,15.00
2009,06,26,11,33,15.00
2009,06,26,11,34,15.00
2009,06,26,11,35,15.00
2009,06,26,11,36,15.00
2009,06,26,11,37,15.00
2009,06,26,11,38,14.90
2009,06,26,11,39,14.80
2009,06,26,11,40,14.60
2009,06,26,11,41,14.60
2009,06,26,11,42,14.60
2009,06,26,11,43,14.60
2009,06,26,11,44,14.70
2009,06,26,11,45,14.80
2009,06,26,11,46,14.80
2009,06,26,11,47,14.80
2009,06,26,11,48,14.90
2009,06,26,11,49,15.00
2009,06,26,11,50,15.00
2009,06,26,11,51,15.00
2009,06,26,11,52,15.00
2009,06,26,11,53,15.00
2009,06,26,11,54,15.00
2009,06,26,11,55,15.00
2009,06,26,11,56,15.10
2009,06,26,11,57,15.20
2009,06,26,11,58,15.30
2009,06,26,11,59,15.30
2009,06,26,12,00,15.40
2009,06,26,12,01,15.50
2009,06,26,12,02,15.50
2009,06,26,12,03,15.40
2009,06,26,12,04,15.10
2009,06,26,12,05,15.00
2009,06,26,12,06,15.00
2009,06,26,12,07,15.00
2009,06,26,12,08,15.00
2009,06,26,12,09,15.00
2009,06,26,12,10,15.00
2009,06,26,12,11,15.10
2009,06,26,12,12,15.20
2009,06,26,12,13,15.30
2009,06,26,12,14,15.30
2009,06,26,12,15,15.40
2009,06,26,12,16,15.40
2009,06,26,12,17,15.50
2009,06,26,12,18,15.60
2009,06,26,12,19,15.80
2009,06,26,12,20,15.70
2009,06,26,12,21,15.70
2009,06,26,12,22,15.70
2009,06,26,12,23,15.80
2009,06,26,12,24,15.80
2009,06,26,12,25,15.90
2009,06,26,12,26,15.90
2009,06,26,12,27,15.90
2009,06,26,12,28,15.90
2009,06,26,12,29,15.90
2009,06,26,12,30,15.80
2009,06,26,12,31,15.80
2009,06,26,12,32,15.70
2009,06,26,12,33,15.70
2009,06,26,12,34,15.60
2009,06,26,12,35,15.60
2009,06,26,12,36,15.60
2009,06,26,12,37,15.60
2009,06,26,12,38,15.60
2009,06,26,12,39,15.60
2009,06,26,12,40,15.70
2009,06,26,12,41,15.70
2009,06,26,12,42,15.80
2009,06,26,12,43,15.80
2009,06,26,12,44,15.90
2009,06,26,12,45,15.90
2009,06,26,12,46,15.80
2009,06,26,12,47,15.80
2009,06,26,12,48,15.80
2009,06,26,12,49,15.80
2009,06,26,12,50,15.90
2009,06,26,12,51,15.90
2009,06,26,12,52,15.90
2009,06,26,12,53,16.00
2009,06,26,12,54,16.10
2009,06,26,12,55,16.20
2009,06,26,12,56,16.30
2009,06,26,12,57,16.50
2009,06,26,12,58,16.60
2009,06,26,12,59,16.70
2009,06,26,13,00,16.70
2009,06,26,13,01,16.70
2009,06,26,13,02,16.60
2009,06,26,13,03,16.50
2009,06,26,13,04,16.50
2009,06,26,13,05,16.50
2009,06,26,13,06,16.40
2009,06,26,13,07,16.30
2009,06,26,13,08,16.30
2009,06,26,13,09,16.30
2009,06,26,13,10,16.30
2009,06,26,13,11,16.20
2009,06,26,13,12,16.30
2009,06,26,13,13,16.40
2009,06,26,13,14,16.30
2009,06,26,13,15,16.20
2009,06,26,13,16,16.00
2009,06,26,13,17,15.90
2009,06,26,13,18,15.80
2009,06,26,13,19,15.80
2009,06,26,13,20,15.80
2009,06,26,13,21,15.80
2009,06,26,13,22,15.80
2009,06,26,13,23,15.60
2009,06,26,13,24,15.50
2009,06,26,13,25,15.40
2009,06,26,13,26,15.50
2009,06,26,13,27,15.70
2009,06,26,13,28,15.80
2009,06,26,13,29,16.00
2009,06,26,13,30,16.10
2009,06,26,13,31,16.10
2009,06,26,13,32,16.20
2009,06,26,13,33,16.30
2009,06,26,13,34,16.30
2009,06,26,13,35,16.40
2009,06,26,13,36,16.50
2009,06,26,13,37,16.50
2009,06,26,13,38,16.60
2009,06,26,13,39,16.80
2009,06,26,13,40,16.80
2009,06,26,13,41,16.90
2009,06,26,13,42,16.90
2009,06,26,13,43,16.90
2009,06,26,13,44,16.90
2009,06,26,13,45,16.70
2009,06,26,13,46,16.60
2009,06,26,13,47,16.60
2009,06,26,13,48,16.60
2009,06,26,13,49,16.60
2009,06,26,13,50,16.60
2009,06,26,13,51,16.70
2009,06,26,13,52,16.80
2009,06,26,13,53,16.70
2009,06,26,13,54,16.70
2009,06,26,13,55,16.70
2009,06,26,13,56,16.70
2009,06,26,13,57,16.80
2009,06,26,13,58,16.90
2009,06,26,13,59,17.00
2009,06,26,14,00,17.10
2009,06,26,14,01,17.20
2009,06,26,14,02,17.30
2009,06,26,14,03,17.30
2009,06,26,14,04,17.30
2009,06,26,14,05,17.30
2009,06,26,14,06,17.20
2009,06,26,14,07,17.00
2009,06,26,14,08,16.90
2009,06,26,14,09,16.90
2009,06,26,14,10,16.90
2009,06,26,14,11,16.80
2009,06,26,14,12,16.60
2009,06,26,14,13,16.50
2009,06,26,14,14,16.50
2009,06,26,14,15,16.50
2009,06,26,14,16,16.60
2009,06,26,14,17,16.60
2009,06,26,14,18,16.60
2009,06,26,14,19,16.60
2009,06,26,14,20,16.50
2009,06,26,14,21,16.50
2009,06,26,14,22,16.40
2009,06,26,14,23,16.50
2009,06,26,14,24,16.60
2009,06,26,14,25,16.70
2009,06,26,14,26,16.80
2009,06,26,14,27,16.80
2009,06,26,14,28,16.70
2009,06,26,14,29,16.70
2009,06,26,14,30,16.80
2009,06,26,14,31,16.80
2009,06,26,14,32,16.80
2009,06,26,14,33,16.80
2009,06,26,14,34,16.80
2009,06,26,14,35,16.70
2009,06,26,14,36,16.70
2009,06,26,14,37,16.70
2009,06,26,14,38,16.70
2009,06,26,14,39,16.70
2009,06,26,14,40,16.80
2009,06,26,14,41,16.90
2009,06,26,14,42,16.90
2009,06,26,14,43,17.00
2009,06,26,14,44,17.10
2009,06,26,14,45,17.20
2009,06,26,14,46,17.30
2009,06,26,14,47,17.40
2009,06,26,14,48,17.50
2009,06,26,14,49,17.60
2009,06,26,14,50,17.70
2009,06,26,14,51,17.70
2009,06,26,14,52,17.70
2009,06,26,14,53,17.70
2009,06,26,14,54,17.70
2009,06,26,14,55,17.70
2009,06,26,14,56,17.70
2009,06,26,14,57,17.80
2009,06,26,14,58,17.80
2009,06,26,14,59,17.80
2009,06,26,15,00,17.80
2009,06,26,15,01,17.70
2009,06,26,15,02,17.50
2009,06,26,15,03,17.40
2009,06,26,15,04,17.20
2009,06,26,15,05,17.20
2009,06,26,15,06,17.20
2009,06,26,15,07,17.30
2009,06,26,15,08,17.20
2009,06,26,15,09,17.30
2009,06,26,15,10,17.30
2009,06,26,15,11,17.30
2009,06,26,15,12,17.30
2009,06,26,15,13,17.30
2009,06,26,15,14,17.20
2009,06,26,15,15,17.00
2009,06,26,15,16,16.90
2009,06,26,15,17,16.80
2009,06,26,15,18,16.80
2009,06,26,15,19,16.80
2009,06,26,15,20,16.90
2009,06,26,15,21,17.00
2009,06,26,15,22,17.10
2009,06,26,15,23,17.10
2009,06,26,15,24,17.20
2009,06,26,15,25,17.30
2009,06,26,15,26,17.40
2009,06,26,15,27,17.50
2009,06,26,15,28,17.70
2009,06,26,15,29,17.80
2009,06,26,15,30,17.80
2009,06,26,15,31,17.90
2009,06,26,15,32,18.00
2009,06,26,15,33,18.10
2009,06,26,15,34,18.20
2009,06,26,15,35,18.20
2009,06,26,15,36,18.30
2009,06,26,15,37,18.40
2009,06,26,15,38,18.40
2009,06,26,15,39,18.40
2009,06,26,15,40,18.20
2009,06,26,15,41,18.20
2009,06,26,15,42,18.00
2009,06,26,15,43,17.90
2009,06,26,15,44,17.70
2009,06,26,15,45,17.70
2009,06,26,15,46,17.70
2009,06,26,15,47,17.80
2009,06,26,15,48,17.90
2009,06,26,15,49,17.90
2009,06,26,15,50,18.00
2009,06,26,15,51,18.00
2009,06,26,15,52,18.00
2009,06,26,15,53,18.00
2009,06,26,15,54,17.90
2009,06,26,15,55,17.90
2009,06,26,15,56,17.90
2009,06,26,15,57,17.90
2009,06,26,15,58,17.90
2009,06,26,15,59,18.00
2009,06,26,16,00,18.10
2009,06,26,16,01,18.10
2009,06,26,16,02,18.00
2009,06,26,16,03,18.00
2009,06,26,16,04,18.00
2009,06,26,16,05,17.90
2009,06,26,16,06,17.80
2009,06,26,16,07,17.70
2009,06,26,16,08,17.60
2009,06,26,16,09,17.50
2009,06,26,16,10,17.50
2009,06,26,16,11,17.50
2009,06,26,16,12,17.40
2009,06,26,16,13,17.50
2009,06,26,16,14,17.60
2009,06,26,16,15,17.60
2009,06,26,16,16,17.70
2009,06,26,16,17,17.80
2009,06,26,16,18,17.80
2009,06,26,16,19,17.80
2009,06,26,16,20,17.90
2009,06,26,16,21,17.90
2009,06,26,16,22,17.90
2009,06,26,16,23,17.90
2009,06,26,16,24,17.90
2009,06,26,16,25,18.00
2009,06,26,16,26,18.00
2009,06,26,16,27,18.00
2009,06,26,16,28,18.00
2009,06,26,16,29,18.10
2009,06,26,16,30,18.10
2009,06,26,16,31,18.10
2009,06,26,16,32,18.10
2009,06,26,16,33,18.10
2009,06,26,16,34,18.10
2009,06,26,16,35,18.00
2009,06,26,16,36,18.00
2009,06,26,16,37,17.90
2009,06,26,16,38,17.90
2009,06,26,16,39,17.90
2009,06,26,16,40,18.00
2009,06,26,16,41,18.10
2009,06,26,16,42,18.10
2009,06,26,16,43,18.20
2009,06,26,16,44,18.20
2009,06,26,16,45,18.30
2009,06,26,16,46,18.30
2009,06,26,16,47,18.40
2009,06,26,16,48,18.40
2009,06,26,16,49,18.40
2009,06,26,16,50,18.40
2009,06,26,16,51,18.30
2009,06,26,16,52,18.30
2009,06,26,16,53,18.20
2009,06,26,16,54,18.10
2009,06,26,16,55,18.00
2009,06,26,16,56,17.90
2009,06,26,16,57,17.90
2009,06,26,16,58,17.90
2009,06,26,16,59,17.90
2009,06,26,17,00,17.90
2009,06,26,17,01,17.80
2009,06,26,17,02,17.70
2009,06,26,17,03,17.70
2009,06,26,17,04,17.70
2009,06,26,17,05,17.70
2009,06,26,17,06,17.70
2009,06,26,17,07,17.60
2009,06,26,17,08,17.60
2009,06,26,17,09,17.60
2009,06,26,17,10,17.70
2009,06,26,17,11,17.70
2009,06,26,17,12,17.70
2009,06,26,17,13,17.80
2009,06,26,17,14,17.80
2009,06,26,17,15,17.90
2009,06,26,17,16,18.00
2009,06,26,17,17,18.10
2009,06,26,17,18,18.20
2009,06,26,17,19,18.20
2009,06,26,17,20,18.20
2009,06,26,17,21,18.10
2009,06,26,17,22,18.10
2009,06,26,17,23,18.00
2009,06,26,17,24,17.90
2009,06,26,17,25,17.80
2009,06,26,17,26,17.80
2009,06,26,17,27,17.70
2009,06,26,17,28,17.70
2009,06,26,17,29,17.70
2009,06,26,17,30,17.70
2009,06,26,17,31,17.70
2009,06,26,17,32,17.70
2009,06,26,17,33,17.70
2009,06,26,17,34,17.70
2009,06,26,17,35,17.70
2009,06,26,17,36,17.60
2009,06,26,17,37,17.60
2009,06,26,17,38,17.60
2009,06,26,17,39,17.60
2009,06,26,17,40,17.60
2009,06,26,17,41,17.60
2009,06,26,17,42,17.70
2009,06,26,17,43,17.70
2009,06,26,17,44,17.70
2009,06,26,17,45,17.60
2009,06,26,17,46,17.60
2009,06,26,17,47,17.60
2009,06,26,17,48,17.70
2009,06,26,17,49,17.70
2009,06,26,17,50,17.70
2009,06,26,17,51,17.70
2009,06,26,17,52,17.80
2009,06,26,17,53,17.80
2009,06,26,17,54,17.80
2009,06,26,17,55,17.80
2009,06,26,17,56,17.80
2009,06,26,17,57,17.80